Location: Gunnison Valley Observatory
(38.5087°N, 106.9386°W)
Time: 17:38:46
(UTC-06:00)

Amateur Radio Satellites - All Passes

Search period start: 29 July 2016 17:08
Search period end: 30 July 2016 17:08
Location: Gunnison Valley Observatory, 38.5087°N, 106.9386°W

Satellite Date Start Highest point End Downlink Frequencies (MHz)
Time Altitude Azimuth
SO-50 29 Jul 17:09:21 17:13:58 79° 241° (WSW) 17:18:26 436.795
KKS-1 29 Jul 17:10:35 17:15:06 85° 286° (WNW) 17:19:35 437.445
NOAA 15 29 Jul 17:13:29 17:17:00 19° 63° (ENE) 17:20:32 137.62
BRITE-PL 29 Jul 17:29:59 17:33:18 24° 69° (ENE) 17:36:40 437.365/2234.400
PHONESAT 2.4 29 Jul 17:30:29 17:33:33 76° 347° (NNW) 17:36:39 2401.200-2431.200
HORYU 2 29 Jul 17:30:55 17:35:22 68° 258° (WSW) 17:39:52 437.375
AO-7 29 Jul 17:34:55 17:41:07 23° 266° (W) 17:47:24 29.400- 29.500
STARS 29 Jul 17:41:48 17:46:16 79° 283° (WNW) 17:50:41 437.465
Cosmos 2499 29 Jul 17:41:48 17:48:58 27° 290° (WNW) 17:56:01 435.465 / 435.565
RS-15 29 Jul 17:43:54 17:54:53 40° 254° (WSW) 18:05:41 29.354- 29.394
LilacSat-2 29 Jul 17:44:53 17:47:35 18° 68° (ENE) 17:50:18 437.200
PCSat 29 Jul 17:51:53 17:54:47 15° 103° (ESE) 17:57:42 145.827
CUBESAT XI-V 29 Jul 17:54:49 17:59:05 36° 98° (E) 18:03:19 437.345
BEESAT 3 29 Jul 17:56:00 17:59:45 47° 116° (ESE) 18:03:34 437.485
NOAA 18 29 Jul 17:59:45 18:04:50 39° 69° (ENE) 18:09:57 137.9125
DOVE 4 29 Jul 18:00:16 18:00:41 10° 61° (ENE) 18:01:05 437.250
MOZHAYETS 4 29 Jul 18:05:53 18:09:15 21° 293° (WNW) 18:12:38
BEESAT 2 29 Jul 18:07:58 18:11:30 32° 114° (ESE) 18:15:05 435.950
HO-68 29 Jul 18:15:29 18:17:33 11° 51° (NE) 18:19:37 435.675
Cubesat XI-IV 29 Jul 18:17:20 18:22:33 54° 72° (ENE) 18:27:48 437.490
GOMX 1 29 Jul 18:17:25 18:21:13 35° 71° (ENE) 18:25:11 467.674
CUTE-I 29 Jul 18:39:54 18:45:17 88° 79° (E) 18:50:42 437.470
NOAA 15 29 Jul 18:51:14 18:56:20 53° 260° (W) 19:01:28 137.62
PHONESAT 2.4 29 Jul 19:07:09 19:10:13 59° 5° (N) 19:13:16 2401.200-2431.200
BRITE-PL 29 Jul 19:08:25 19:11:45 23° 265° (W) 19:15:08 437.365/2234.400
YUBILEINY 29 Jul 19:09:50 19:13:34 13° 60° (ENE) 19:17:17 435.215
O/OREOS (USA 219) 29 Jul 19:17:01 19:18:26 11° 98° (E) 19:19:50 437.305
LilacSat-2 29 Jul 19:18:16 19:21:40 29° 264° (W) 19:25:06 437.200
CINEMA 3 29 Jul 19:24:54 19:28:38 25° 68° (ENE) 19:32:31 145.822/145.860
PCSat 29 Jul 19:32:09 19:37:32 68° 299° (WNW) 19:42:58 145.827
CUBESAT XI-V 29 Jul 19:32:46 19:36:12 21° 293° (WNW) 19:39:39 437.345
DOVE 4 29 Jul 19:33:20 19:37:37 74° 259° (WSW) 19:42:11 437.250
BEESAT 3 29 Jul 19:35:14 19:37:41 16° 314° (NW) 19:40:09 437.485
NOAA 18 29 Jul 19:40:58 19:45:33 26° 264° (W) 19:50:10 137.9125
AAUSAT CUBESAT 2 29 Jul 19:41:17 19:41:32 10° 64° (ENE) 19:41:48 437.432
BEESAT 2 29 Jul 19:46:20 19:49:23 21° 311° (NW) 19:52:28 435.950
CANX-2 29 Jul 19:53:58 19:58:02 45° 73° (ENE) 20:02:07 2200.000
GOMX 1 29 Jul 19:56:43 19:59:29 17° 268° (W) 20:02:20 467.674
HO-68 29 Jul 19:56:48 20:03:52 64° 70° (ENE) 20:10:58 435.675
ISS 29 Jul 19:59:00 20:01:52 29° 134° (SE) 20:04:44 145.825
Cubesat XI-IV 29 Jul 19:59:22 20:02:55 18° 267° (W) 20:06:29 437.490
CUTE 1.7 + AOD 2 29 Jul 20:06:42 20:10:52 55° 75° (ENE) 20:15:03 437.475
CUBEBUG 2 29 Jul 20:12:49 20:16:34 25° 68° (ENE) 20:20:23 437.445
Oscar 11 29 Jul 20:17:26 20:18:49 11° 64° (ENE) 20:20:11 145.826/435.025
Cosmos 2491 29 Jul 20:31:22 20:37:46 24° 81° (E) 20:44:10 435.465 / 435.565
STRAND 1 29 Jul 20:32:04 20:37:12 87° 103° (ESE) 20:42:18 437.568
AIST 2 29 Jul 20:32:06 20:36:06 55° 117° (ESE) 20:40:09 435.215
SEEDS 29 Jul 20:40:29 20:44:43 84° 261° (W) 20:48:57 437.485
PHONESAT 2.4 29 Jul 20:43:42 20:46:44 54° 201° (SSW) 20:49:45 2401.200-2431.200
COMPASS 1 29 Jul 20:46:51 20:51:02 79° 77° (ENE) 20:55:13 437.405
M-CUBED/EXP-1 PRIME 29 Jul 20:49:53 20:50:15 10° 56° (NE) 20:50:36 437.505
O/OREOS (USA 219) 29 Jul 20:52:51 20:57:14 59° 293° (WNW) 21:01:40 437.305
Cosmos 2504 29 Jul 20:58:47 21:04:31 21° 66° (ENE) 21:09:59 435.465 / 435.565
CINEMA 3 29 Jul 21:01:39 21:05:37 30° 265° (W) 21:09:46 145.822/145.860
YUBILEINY 29 Jul 21:03:15 21:12:07 72° 81° (E) 21:20:52 435.215
AO-85 29 Jul 21:06:22 21:07:51 11° 39° (NE) 21:09:19 145.980
PRISM 29 Jul 21:09:31 21:12:57 25° 97° (E) 21:16:23 437.425
AUBIESAT-1 29 Jul 21:11:19 21:13:36 15° 59° (ENE) 21:15:59 437.475
FUNcube-1 29 Jul 21:11:35 21:15:51 42° 72° (ENE) 21:20:11 145.935
DELFI C3 29 Jul 21:12:01 21:14:44 18° 68° (ENE) 21:17:26 145.870
AAUSAT CUBESAT 2 29 Jul 21:12:19 21:16:27 65° 260° (W) 21:20:35 437.432
ZACube-1 29 Jul 21:14:04 21:18:26 48° 73° (ENE) 21:22:52 437.345
UWE-3 29 Jul 21:19:54 21:24:29 87° 74° (ENE) 21:29:11 435.000/436.395/437.385
PCSat 29 Jul 21:20:08 21:21:58 12° 319° (NW) 21:23:48 145.827
CANX-2 29 Jul 21:31:51 21:34:06 14° 268° (W) 21:36:21 2200.000
ISS 29 Jul 21:35:22 21:38:16 29° 330° (NNW) 21:41:09 145.825
CUTE 1.7 + AOD 2 29 Jul 21:45:38 21:47:01 11° 269° (W) 21:48:24 437.475
HO-68 29 Jul 21:46:36 21:52:01 23° 267° (W) 21:57:27 435.675
CUBEBUG 2 29 Jul 21:48:55 21:53:00 31° 264° (W) 21:57:12 437.445
Oscar 11 29 Jul 21:50:04 21:54:22 64° 259° (W) 21:58:43 145.826/435.025
HUMSAT D 29 Jul 22:03:18 22:07:13 35° 72° (ENE) 22:11:08 437.325/437.525
AIST 2 29 Jul 22:12:27 22:14:55 15° 315° (NW) 22:17:24 435.215
ANTELSAT 29 Jul 22:13:21 22:14:45 11° 90° (E) 22:16:08 437.575/2403.000
STRAND 1 29 Jul 22:14:13 22:15:37 11° 300° (WNW) 22:16:59 437.568
M-CUBED/EXP-1 PRIME 29 Jul 22:20:17 22:24:03 70° 254° (WSW) 22:28:12 437.505
PHONESAT 2.4 29 Jul 22:21:51 22:22:47 11° 215° (SW) 22:23:44 2401.200-2431.200
Cosmos 2491 29 Jul 22:25:06 22:33:45 68° 280° (W) 22:42:28 435.465 / 435.565
AUBIESAT-1 29 Jul 22:43:57 22:47:37 44° 257° (WSW) 22:51:36 437.475
AISAT 29 Jul 22:44:36 22:45:07 10° 62° (ENE) 22:45:39 437.250
AO-85 29 Jul 22:44:43 22:49:05 89° 226° (SW) 22:53:05 145.980
PRISM 29 Jul 22:44:53 22:48:08 23° 291° (WNW) 22:51:24 437.425
DELFI C3 29 Jul 22:45:47 22:49:21 31° 263° (W) 22:52:53 145.870
FUNcube-1 29 Jul 22:49:17 22:52:16 17° 268° (W) 22:55:16 145.935
Cosmos 2504 29 Jul 22:50:47 22:58:46 71° 267° (W) 23:06:10 435.465 / 435.565
TIGRISAT 29 Jul 22:51:55 22:55:57 30° 96° (E) 22:59:52 435.000
ZACube-1 29 Jul 22:52:20 22:54:57 15° 269° (W) 22:57:36 437.345
YUBILEINY 29 Jul 23:01:38 23:07:58 23° 280° (W) 23:14:15 435.215
UNISAT 6 29 Jul 23:09:00 23:13:29 49° 99° (E) 23:17:49 437.425
50 SAT 29 Jul 23:19:36 23:22:22 21° 70° (ENE) 23:25:09 437.505
CUBEBUG 1 29 Jul 23:25:15 23:29:01 31° 70° (ENE) 23:32:51 437.445
ESTCUBE 1 29 Jul 23:27:43 23:32:04 52° 73° (ENE) 23:36:26 437.505/2401.250
VELOX 1 29 Jul 23:31:56 23:35:50 32° 70° (ENE) 23:39:46 145.980
HUMSAT D 29 Jul 23:39:53 23:42:54 18° 266° (W) 23:45:55 437.325/437.525
NANOSAT C BR1 29 Jul 23:41:45 23:44:10 15° 92° (E) 23:46:33 145.865
DUCHIFAT 1 29 Jul 23:44:31 23:46:56 15° 92° (E) 23:49:19 145.980
ANTELSAT 29 Jul 23:47:20 23:51:53 63° 286° (WNW) 23:56:19 437.575/2403.000
QB50P1 30 Jul 00:04:53 00:08:38 29° 97° (E) 00:12:21 145.935-145.965
DX 1 30 Jul 00:05:34 00:09:48 56° 73° (ENE) 00:14:02 434.975-435.025
POPSAT HIP 1 30 Jul 00:11:31 00:15:26 34° 97° (E) 00:19:19 437.405
UKube-1 30 Jul 00:13:25 00:17:36 54° 73° (ENE) 00:21:49 .
AISAT 30 Jul 00:16:35 00:20:57 73° 258° (WSW) 00:25:22 437.250
AIST 1 30 Jul 00:25:07 00:29:23 51° 80° (E) 00:33:39
TIGRISAT 30 Jul 00:28:46 00:32:29 25° 292° (WNW) 00:36:07 435.000
Cosmos 2491 30 Jul 00:29:27 00:32:24 12° 301° (WNW) 00:35:22 435.465 / 435.565
QB50P2 30 Jul 00:32:59 00:37:16 67° 101° (ESE) 00:41:30 145.880/145.840
POLYITAN 1 30 Jul 00:35:38 00:39:56 68° 102° (ESE) 00:44:09 437.675
SPROUT 30 Jul 00:40:36 00:44:53 89° 69° (ENE) 00:49:12 437.525
UNISAT 6 30 Jul 00:47:00 00:49:44 16° 295° (WNW) 00:52:25 437.425
50 SAT 30 Jul 00:53:00 00:55:53 22° 264° (W) 00:58:47 437.505
CUBEBUG 1 30 Jul 01:02:06 01:05:20 21° 266° (W) 01:08:36 437.445
ESTCUBE 1 30 Jul 01:07:00 01:09:09 13° 268° (W) 01:11:19 437.505/2401.250
VELOX 1 30 Jul 01:09:04 01:12:20 20° 265° (W) 01:15:38 145.980
GONETS M04 30 Jul 01:12:58 01:19:06 20° 65° (ENE) 01:25:11
NANOSAT C BR1 30 Jul 01:16:02 01:20:05 42° 288° (WNW) 01:24:06 145.865
DUCHIFAT 1 30 Jul 01:18:46 01:22:48 42° 287° (WNW) 01:26:48 145.980
SWISSCUBE 30 Jul 01:20:00 01:22:09 13° 62° (ENE) 01:24:18 437.505
BUGSAT 1 30 Jul 01:20:07 01:24:25 84° 104° (ESE) 01:28:39 437.445
JAS-2 30 Jul 01:20:17 01:25:37 56° 102° (ESE) 01:31:29 435.910
TISAT 1 30 Jul 01:24:44 01:28:52 63° 75° (ENE) 01:33:04 437.305
JUGNU 30 Jul 01:25:27 01:26:51 11° 173° (S) 01:28:14 437.505
Oscar 19 30 Jul 01:36:18 01:40:03 20° 94° (E) 01:43:48 437.125/150
BEESAT 30 Jul 01:39:41 01:42:59 19° 65° (ENE) 01:46:16 436.000
QB50P1 30 Jul 01:40:54 01:44:14 22° 292° (WNW) 01:47:33 145.935-145.965
Cosmos 2499 30 Jul 01:42:04 01:47:10 19° 65° (ENE) 01:52:03 435.465 / 435.565
DX 1 30 Jul 01:44:55 01:46:19 11° 269° (W) 01:47:42 434.975-435.025
POPSAT HIP 1 30 Jul 01:47:53 01:50:58 19° 293° (WNW) 01:54:01 437.405
UKube-1 30 Jul 01:52:23 01:53:57 12° 268° (W) 01:55:31 .
ITUPSAT 1 30 Jul 02:03:49 02:08:03 32° 69° (ENE) 02:12:17 437.325
AIST 1 30 Jul 02:04:51 02:06:28 12° 275° (W) 02:08:05
QB50P2 30 Jul 02:11:34 02:12:28 11° 297° (WNW) 02:13:24 145.880/145.840
POLYITAN 1 30 Jul 02:14:21 02:15:06 10° 297° (WNW) 02:15:51 437.675
BEESAT 3 30 Jul 02:14:59 02:17:56 20° 49° (NE) 02:20:51 437.485
ISS 30 Jul 02:27:45 02:30:35 26° 29° (NNE) 02:33:23 145.825
BEESAT 2 30 Jul 02:27:52 02:30:17 15° 46° (NE) 02:32:41 435.950
PCSat 30 Jul 02:40:32 02:42:27 12° 41° (NE) 02:44:22 145.827
SWISSCUBE 30 Jul 02:54:35 02:59:21 67° 258° (WSW) 03:04:08 437.505
CUSAT 1 30 Jul 03:03:48 03:06:34 19° 96° (E) 03:08:58 437.405
JAS-2 30 Jul 03:06:47 03:10:22 18° 295° (WNW) 03:14:09 435.910
GONETS M04 30 Jul 03:08:06 03:16:57 82° 265° (W) 03:25:47
JUGNU 30 Jul 03:12:53 03:14:57 12° 183° (S) 03:17:01 437.505
Oscar 19 30 Jul 03:14:38 03:19:33 45° 289° (WNW) 03:24:28 437.125/150
BEESAT 30 Jul 03:15:50 03:20:25 44° 261° (W) 03:25:00 436.000
ITAMSAT 1 30 Jul 03:17:13 03:21:30 26° 96° (E) 03:25:45 435.822/435.867
Gurwin Techsat 1B 30 Jul 03:20:47 03:26:08 90° 69° (ENE) 03:31:27 435.225
MOZHAYETS 4 30 Jul 03:28:37 03:32:37 29° 70° (ENE) 03:36:37
Cosmos 2499 30 Jul 03:33:32 03:41:13 75° 266° (W) 03:48:22 435.465 / 435.565
ITUPSAT 1 30 Jul 03:41:55 03:45:51 25° 264° (W) 03:49:49 437.325
AO-7 30 Jul 03:43:46 03:50:21 25° 95° (E) 03:56:52 29.400- 29.500
SRMSAT 30 Jul 03:48:16 03:49:39 11° 173° (S) 03:51:03 437.500
BEESAT 3 30 Jul 03:52:04 03:55:43 36° 245° (WSW) 03:59:20 437.485
DANDE 30 Jul 03:54:42 03:59:33 33° 97° (E) 04:03:18 436.750
ISS 30 Jul 04:04:04 04:07:01 33° 226° (SW) 04:09:59 145.825
BEESAT 2 30 Jul 04:04:30 04:08:24 52° 243° (WSW) 04:12:16 435.950
KKS-1 30 Jul 04:06:52 04:11:17 73° 74° (ENE) 04:15:45 437.445
PCSat 30 Jul 04:21:25 04:26:51 70° 61° (ENE) 04:32:14 145.827
STARS 30 Jul 04:36:37 04:41:00 76° 75° (ENE) 04:45:25 437.465
CUSAT 1 30 Jul 04:45:58 04:48:26 17° 282° (WNW) 04:50:36 437.405
AIST 2 30 Jul 04:55:02 04:58:30 25° 50° (NE) 05:01:58 435.215
ITAMSAT 1 30 Jul 04:56:17 05:00:59 35° 291° (WNW) 05:05:38 435.822/435.867
CUBESAT XI-V 30 Jul 04:56:49 05:00:49 30° 70° (ENE) 05:04:48 437.345
Gurwin Techsat 1B 30 Jul 05:03:37 05:05:16 11° 301° (WNW) 05:06:54 435.225
MOZHAYETS 4 30 Jul 05:05:55 05:09:44 25° 265° (W) 05:13:33
GONETS M04 30 Jul 05:08:08 05:12:17 14° 284° (WNW) 05:16:26
HORYU 2 30 Jul 05:23:49 05:27:28 24° 96° (E) 05:31:06 437.375
O/OREOS (USA 219) 30 Jul 05:25:42 05:29:02 20° 58° (ENE) 05:32:22 437.305
AO-7 30 Jul 05:35:22 05:43:38 67° 292° (WNW) 05:51:50 29.400- 29.500
SRMSAT 30 Jul 05:36:00 05:37:54 12° 184° (S) 05:39:48 437.500
BRITE-PL 30 Jul 05:36:55 05:38:08 11° 90° (E) 05:39:23 437.365/2234.400
DANDE 30 Jul 05:38:33 05:42:10 19° 282° (WNW) 05:45:11 436.750
RS-15 30 Jul 05:52:26 06:02:49 43° 107° (ESE) 06:13:41 29.354- 29.394
PCSat 30 Jul 06:06:46 06:09:35 14° 257° (WSW) 06:12:24 145.827
STRAND 1 30 Jul 06:10:45 06:13:01 13° 61° (ENE) 06:15:16 437.568
GOMX 1 30 Jul 06:20:42 06:23:42 15° 91° (E) 06:26:43 467.674
NOAA 18 30 Jul 06:24:10 06:27:51 18° 93° (E) 06:31:31 137.9125
AIST 2 30 Jul 06:33:19 06:36:58 30° 246° (WSW) 06:40:36 435.215
CUBESAT XI-V 30 Jul 06:34:25 06:38:10 24° 265° (W) 06:41:55 437.345
Cubesat XI-IV 30 Jul 06:36:40 06:40:57 24° 95° (E) 06:45:12 437.490
LilacSat-2 30 Jul 06:52:48 06:56:16 31° 97° (E) 06:59:40 437.200
CUTE-I 30 Jul 06:58:43 07:03:42 39° 98° (E) 07:08:39 437.470
HORYU 2 30 Jul 07:00:09 07:03:58 28° 291° (WNW) 07:07:46 437.375
O/OREOS (USA 219) 30 Jul 07:04:21 07:08:34 39° 255° (WSW) 07:12:48 437.305
NOAA 15 30 Jul 07:07:34 07:12:49 64° 102° (ESE) 07:18:02 137.62
BRITE-PL 30 Jul 07:11:59 07:16:59 81° 284° (WNW) 07:22:21 437.365/2234.400
SO-50 30 Jul 07:21:36 07:26:17 48° 116° (ESE) 07:30:57 436.795
HO-68 30 Jul 07:30:16 07:31:57 11° 88° (E) 07:33:36 435.675
AO-7 30 Jul 07:30:52 07:34:50 14° 312° (NW) 07:38:47 29.400- 29.500
DOVE 4 30 Jul 07:33:03 07:37:54 37° 97° (E) 07:42:46 437.250
STRAND 1 30 Jul 07:46:22 07:51:30 77° 257° (WSW) 07:56:40 437.568
CUTE 1.7 + AOD 2 30 Jul 07:56:14 07:56:37 10° 90° (E) 07:57:01 437.475
GOMX 1 30 Jul 07:56:55 08:02:03 63° 285° (WNW) 08:07:24 467.674
PRISM 30 Jul 07:58:30 08:00:59 16° 66° (ENE) 08:03:28 437.425
NOAA 18 30 Jul 08:03:25 08:08:50 56° 288° (WNW) 08:14:12 137.9125
RS-15 30 Jul 08:03:38 08:14:53 57° 310° (NW) 08:26:48 29.354- 29.394
YUBILEINY 30 Jul 08:10:40 08:15:07 15° 76° (ENE) 08:19:35 435.215
Cubesat XI-IV 30 Jul 08:16:09 08:21:07 40° 291° (WNW) 08:26:02 437.490
SEEDS 30 Jul 08:26:52 08:29:38 17° 93° (E) 08:32:24 437.485
LilacSat-2 30 Jul 08:27:47 08:30:18 17° 292° (WNW) 08:32:47 437.200
COMPASS 1 30 Jul 08:32:45 08:34:49 13° 92° (E) 08:36:52 437.405
Cosmos 2491 30 Jul 08:37:09 08:45:47 58° 79° (ENE) 08:54:22 435.465 / 435.565
CUTE-I 30 Jul 08:39:13 08:43:30 25° 294° (WNW) 08:47:46 437.470
NOAA 15 30 Jul 08:48:57 08:52:01 16° 298° (WNW) 08:55:06 137.62
AAUSAT CUBESAT 2 30 Jul 08:56:42 08:59:48 20° 94° (E) 09:02:52 437.432
CINEMA 3 30 Jul 08:56:50 09:01:53 75° 101° (ESE) 09:06:49 145.822/145.860
SO-50 30 Jul 09:03:11 09:07:00 22° 313° (NW) 09:10:49 436.795
ZACube-1 30 Jul 09:07:40 09:07:44 10° 89° (E) 09:07:48 437.345
DOVE 4 30 Jul 09:11:03 09:15:22 27° 292° (WNW) 09:19:44 437.250
UWE-3 30 Jul 09:12:07 09:15:28 20° 93° (E) 09:18:45 435.000/436.395/437.385
HO-68 30 Jul 09:13:28 09:20:42 76° 105° (ESE) 09:27:52 435.675
CANX-2 30 Jul 09:15:54 09:20:06 72° 284° (WNW) 09:24:16 2200.000
CUTE 1.7 + AOD 2 30 Jul 09:28:40 09:32:49 59° 285° (WNW) 09:36:56 437.475
PRISM 30 Jul 09:32:11 09:35:59 37° 261° (W) 09:39:47 437.425
Cosmos 2504 30 Jul 09:35:36 09:41:26 20° 79° (E) 09:47:14 435.465 / 435.565
Oscar 11 30 Jul 09:39:11 09:42:44 25° 95° (E) 09:46:17 145.826/435.025
CUBEBUG 2 30 Jul 09:40:42 09:45:23 64° 101° (E) 09:49:52 437.445
TIGRISAT 30 Jul 09:49:10 09:52:50 24° 68° (ENE) 09:56:33 435.000
SEEDS 30 Jul 10:01:39 10:05:26 34° 288° (WNW) 10:09:11 437.485
YUBILEINY 30 Jul 10:01:41 10:10:28 85° 96° (E) 10:19:21 435.215
M-CUBED/EXP-1 PRIME 30 Jul 10:03:23 10:04:29 11° 94° (E) 10:05:36 437.505
UNISAT 6 30 Jul 10:06:02 10:10:18 37° 71° (ENE) 10:14:37 437.425
COMPASS 1 30 Jul 10:06:39 10:10:35 43° 287° (WNW) 10:14:29 437.405
RS-15 30 Jul 10:22:17 10:30:58 22° 340° (NNW) 10:39:56 29.354- 29.394
DELFI C3 30 Jul 10:24:27 10:28:02 33° 97° (E) 10:31:36 145.870
AUBIESAT-1 30 Jul 10:24:53 10:27:39 16° 96° (E) 10:30:24 437.475
AAUSAT CUBESAT 2 30 Jul 10:31:44 10:35:16 28° 289° (WNW) 10:38:47 437.432
Cosmos 2491 30 Jul 10:34:55 10:42:01 29° 277° (W) 10:49:09 435.465 / 435.565
CINEMA 3 30 Jul 10:36:09 10:38:19 13° 298° (WNW) 10:40:27 145.822/145.860
FUNcube-1 30 Jul 10:37:03 10:41:31 76° 284° (WNW) 10:45:49 145.935
ZACube-1 30 Jul 10:40:02 10:44:28 65° 285° (WNW) 10:48:46 437.345
ANTELSAT 30 Jul 10:43:55 10:48:34 87° 261° (W) 10:53:18 437.575/2403.000
UWE-3 30 Jul 10:47:51 10:52:01 35° 289° (WNW) 10:56:03 435.000/436.395/437.385
QB50P1 30 Jul 10:56:31 10:59:30 19° 67° (ENE) 11:02:30 145.935-145.965
HO-68 30 Jul 11:02:37 11:07:38 21° 302° (WNW) 11:12:37 435.675
POPSAT HIP 1 30 Jul 11:03:00 11:06:16 22° 68° (ENE) 11:09:33 437.405
Oscar 11 30 Jul 11:15:13 11:18:47 26° 291° (WNW) 11:22:20 145.826/435.025
CUBEBUG 2 30 Jul 11:19:17 11:21:22 13° 297° (WNW) 11:23:26 437.445
HUMSAT D 30 Jul 11:23:16 11:27:27 80° 104° (ESE) 11:31:33 437.325/437.525
ESTCUBE 1 30 Jul 11:23:38 11:25:23 12° 91° (E) 11:27:09 437.505/2401.250
QB50P2 30 Jul 11:24:02 11:28:00 40° 72° (ENE) 11:32:01 145.880/145.840
Cosmos 2504 30 Jul 11:24:51 11:33:44 83° 277° (W) 11:42:36 435.465 / 435.565
TIGRISAT 30 Jul 11:25:08 11:29:18 33° 263° (W) 11:33:34 435.000
POLYITAN 1 30 Jul 11:26:38 11:30:38 41° 72° (ENE) 11:34:41 437.675
JAS-2 30 Jul 11:33:06 11:37:08 20° 65° (ENE) 11:40:58 435.910
M-CUBED/EXP-1 PRIME 30 Jul 11:34:42 11:39:26 76° 289° (WNW) 11:44:05 437.505
UNISAT 6 30 Jul 11:43:38 11:47:05 21° 267° (W) 11:50:36 437.425
DX 1 30 Jul 11:57:44 11:58:49 11° 91° (E) 11:59:53 434.975-435.025
AUBIESAT-1 30 Jul 11:57:49 12:02:20 52° 292° (WNW) 12:06:46 437.475
DELFI C3 30 Jul 12:00:06 12:02:37 17° 292° (WNW) 12:05:08 145.870
YUBILEINY 30 Jul 12:02:32 12:08:24 19° 296° (WNW) 12:14:20 435.215
NANOSAT C BR1 30 Jul 12:06:05 12:10:18 72° 258° (WSW) 12:14:34 145.865
BUGSAT 1 30 Jul 12:08:15 12:12:09 45° 73° (ENE) 12:16:08 437.445
DUCHIFAT 1 30 Jul 12:08:33 12:12:45 73° 257° (WSW) 12:17:02 145.980
AISAT 30 Jul 12:08:41 12:12:15 23° 95° (E) 12:15:48 437.250
50 SAT 30 Jul 12:22:22 12:25:33 29° 97° (E) 12:28:42 437.505
SPROUT 30 Jul 12:29:05 12:31:54 17° 93° (E) 12:34:43 437.525
QB50P1 30 Jul 12:31:08 12:35:00 34° 262° (W) 12:38:55 145.935-145.965
POPSAT HIP 1 30 Jul 12:38:08 12:41:52 29° 264° (W) 12:45:37 437.405
RS-15 30 Jul 12:41:19 12:49:57 21° 17° (NNE) 12:58:39 29.354- 29.394
CUBEBUG 1 30 Jul 12:50:35 12:55:01 78° 102° (ESE) 12:59:26 437.445
Oscar 19 30 Jul 12:51:45 12:55:54 26° 67° (ENE) 13:00:04 437.125/150
AIST 1 30 Jul 12:53:08 12:56:54 31° 90° (E) 13:00:40
AO-85 30 Jul 12:56:16 13:01:25 47° 115° (ESE) 13:06:23 145.980
ESTCUBE 1 30 Jul 12:58:08 13:02:32 57° 286° (WNW) 13:06:56 437.505/2401.250
VELOX 1 30 Jul 12:59:03 13:03:31 82° 103° (ESE) 13:07:59 145.980
QB50P2 30 Jul 13:01:23 13:03:58 16° 267° (W) 13:06:34 145.880/145.840
Gurwin Techsat 1B 30 Jul 13:03:20 13:06:22 16° 62° (ENE) 13:09:24 435.225
POLYITAN 1 30 Jul 13:04:04 13:06:37 15° 267° (W) 13:09:10 437.675
TISAT 1 30 Jul 13:12:35 13:13:42 11° 91° (E) 13:14:48 437.305
JAS-2 30 Jul 13:16:07 13:21:56 52° 259° (W) 13:27:14 435.910
Cosmos 2504 30 Jul 13:23:11 13:28:26 17° 297° (WNW) 13:33:39 435.465 / 435.565
DX 1 30 Jul 13:31:01 13:35:21 61° 286° (WNW) 13:39:40 434.975-435.025
UKube-1 30 Jul 13:37:39 13:41:57 65° 285° (WNW) 13:46:13 .
AISAT 30 Jul 13:44:49 13:48:42 30° 290° (WNW) 13:52:35 437.250
BUGSAT 1 30 Jul 13:45:52 13:47:46 13° 268° (W) 13:49:42 437.445
50 SAT 30 Jul 13:56:48 13:58:55 15° 292° (WNW) 14:01:02 437.505
SPROUT 30 Jul 14:03:58 14:07:58 38° 288° (WNW) 14:11:57 437.525
GONETS M04 30 Jul 14:13:16 14:19:38 23° 81° (E) 14:26:00
Cosmos 2499 30 Jul 14:17:22 14:22:42 18° 79° (E) 14:27:56 435.465 / 435.565
Oscar 19 30 Jul 14:30:22 14:35:01 35° 262° (W) 14:39:43 437.125/150
AIST 1 30 Jul 14:31:34 14:34:32 18° 287° (WNW) 14:37:32
ITAMSAT 1 30 Jul 14:33:36 14:38:18 35° 69° (ENE) 14:43:00 435.822/435.867
AO-85 30 Jul 14:37:38 14:42:05 26° 311° (NW) 14:46:22 145.980
Gurwin Techsat 1B 30 Jul 14:40:26 14:45:43 67° 258° (WSW) 14:51:02 435.225
AO-7 30 Jul 14:41:13 14:48:22 33° 59° (ENE) 14:55:31 29.400- 29.500
TISAT 1 30 Jul 14:45:29 14:49:40 57° 286° (WNW) 14:53:49 437.305
PHONESAT 2.4 30 Jul 14:49:46 14:51:40 15° 147° (SSE) 14:53:35 2401.200-2431.200
RS-15 30 Jul 14:54:37 15:06:33 50° 48° (NE) 15:18:19 29.354- 29.394
SWISSCUBE 30 Jul 14:56:26 15:00:45 34° 98° (E) 15:05:01 437.505
CUSAT 1 30 Jul 15:16:58 15:20:07 39° 262° (W) 15:24:06 437.405
BEESAT 30 Jul 15:17:07 15:21:46 50° 100° (E) 15:26:22 436.000
ITUPSAT 1 30 Jul 15:42:43 15:47:30 88° 287° (WNW) 15:52:15 437.325
SO-50 30 Jul 15:54:46 15:58:49 29° 50° (NE) 16:02:46 436.795
KKS-1 30 Jul 16:00:34 16:03:14 16° 93° (E) 16:05:55 437.445
Cosmos 2499 30 Jul 16:05:46 16:14:41 88° 275° (W) 16:23:22 435.465 / 435.565
GONETS M04 30 Jul 16:06:57 16:15:34 69° 279° (W) 16:24:17
ITAMSAT 1 30 Jul 16:13:24 16:17:46 27° 264° (W) 16:22:08 435.822/435.867
DANDE 30 Jul 16:16:32 16:18:37 19° 264° (W) 16:20:58 436.750
HORYU 2 30 Jul 16:20:46 16:24:04 20° 67° (ENE) 16:27:21 437.375
PHONESAT 2.4 30 Jul 16:24:46 16:27:49 72° 163° (SSE) 16:30:53 2401.200-2431.200
STARS 30 Jul 16:28:48 16:31:25 15° 93° (E) 16:34:01 437.465
AO-7 30 Jul 16:32:32 16:40:41 56° 257° (WSW) 16:48:55 29.400- 29.500
SWISSCUBE 30 Jul 16:34:35 16:38:20 24° 293° (WNW) 16:42:05 437.505
NOAA 15 30 Jul 16:51:10 16:52:28 11° 59° (ENE) 16:53:47 137.62
BEESAT 30 Jul 16:56:10 16:59:07 17° 296° (WNW) 17:02:04 436.000
